Weather in Balovnevo

Russia / Lipetsk Oblast     53°12′55″N   39°02′09″E
temp.,
°C
wind,
m/s
gust,
m/s
humid.,
%
clouds,
%
prec.,
mm/h
press.,
hPa
HPBL,
m
17 october, sun
sun1700:00+6wsw49795 0.0 1018261
03:00+5wsw388923 0.0 1017185
06:00+5wsw349574 0.0 101768
09:00+6wsw2487100 0.0 1017173
12:00+10wsw346790 0.0 1017679
15:00+11w455348 0.0 1015933
18:00+8w33675 0.0 101548
21:00+6w36788 0.0 1015106
18 october, mon
mon1800:00+8w4663100 0.0 1015182
03:00+8w5758100 0.0 1014403
06:00+8wsw4855100 0.0 1013329
09:00+7w51063100 0.0 1013674
12:00+9w71061100 0.0 10131297
15:00+9w7963100 0.0 10121159
18:00+7wnw5974100 0.1 1013805
21:00+6wnw4775100 0.1 1014645
19 october, tue
tue1900:00+4wnw3781100 0.0 1014266
03:00+3wnw378194 0.0 1014206
06:00+2wnw378596 0.0 1015177
09:00+3nw47785 0.0 1016368
12:00+5nw6768100 0.0 1016949
15:00+5nw6957100 0.0 10161405
18:00+4nw376897 0.1 1018522
21:00+3wnw4888100 0.2 1018457
20 october, wed
wed2000:00+3nnw4769100 0.1 1020723
03:00+2nw487599 0.1 1021537
06:000nw48855 0.0 1023280
09:00+1nw588435 0.0 1024518
12:00+3nw4562100 0.0 10241054
15:00+4wnw4556100 0.0 10241219
18:00+2wsw336312 0.0 102539
21:00+1sw3671100 0.0 1023125
21 october, thu
thu2100:00+1ssw497285 0.0 1022243
03:00+2ssw61269100 0.0 1020384
06:00+4ssw71561100 0.0 1017520
09:00+5ssw81769100 0.2 1015564
12:00+10sw9175499 0.0 1012753
15:00+12sw9175674 0.0 1010846
18:00+11sw9176682 0.0 1009754
21:00+11sw91871100 0.0 1008814